{"data":{"norad_id":64943,"epoch":"2026-09-20T13:44:06.828864Z","epoch_age_seconds":118046,"freshness":"FRESH","line1":"1 64943U 25158M   26263.57230126  .00012740  00000+0  39614-3 0  9991","line2":"2 64943  97.2817 121.8221 0002527 111.1743 248.9770 15.33455104 64719","mean_motion":15.33455104,"eccentricity":0.0002527,"inclination_deg":97.2817,"raan_deg":121.8221,"arg_perigee_deg":111.1743,"mean_anomaly_deg":248.977,"bstar":0.00039614,"rev_number":6471,"period_min":93.905585904913,"perigee_km":463.7837218646,"apogee_km":467.24250263133,"semimajor_km":6843.650112248,"source":"CELESTRAK","updated_at":"2026-09-21T09:00:35.488245Z"}}